Home   Weather   Lappeenranta   Past weeks

Flag for Finland Past Weather in Lappeenranta, Finland — Yesterday and Last 2 Weeks

Now
21 °F

Snow flurries. Low clouds.


Feels Like: 15 °F
Forecast: 29 / 38 °F
Wind: 5 mph from Southeast

Location: Lappeenranta

Current Time: Jan 24, 2018 at 4:07:19 am

Latest Report: Jan 24, 2018 at 2:50 am


Visibility: N/A

Pressure: 30.04 "Hg

Humidity: 100%

Dew Point: 21 °F

Location of LappeenrantaLocation

Past Weather in Lappeenranta — Graph

°F

Lappeenranta Temperature Yesterday

Maximum temperature yesterday: 16 °F (at 11:20 pm)
Minimum temperature yesterday: -6 °F (at 4:20 am)
Average temperature yesterday: 1 °F

High & Low Weather Summary for the Past Weeks

 TemperatureHumidityPressure
High32 °F (Jan 9, 3:50 pm)100% (Jan 9, 9:20 am)30.77 "Hg (Jan 9, 9:20 am)
Low-6 °F (Jan 23, 4:20 am)73% (Jan 16, 1:20 pm)29.50 "Hg (Jan 18, 12:50 pm)
Average18 °F90%30.09 "Hg
* Reported Jan 9 2:20 am — Jan 24 2:50 am, Lappeenranta. Weather by CustomWeather, © 2018

Note: Actual official high and low records may vary slightly from our data, if they occured in-between our weather recording intervals... More about our weather records

Advertising

Lappeenranta Weather History for the Previous 24 Hours

Scroll right to see more
 ConditionsComfort  
Time TempWeatherWind HumidityBarometerVisibility
2:50 am
Wed, Jan 24
21 °FSnow flurries. Low clouds.5 mph100%30.04 "HgN/A
2:20 am21 °FLight snow. Low clouds.6 mph93%30.04 "Hg4 mi
1:50 am21 °FLight snow. Low clouds.6 mph93%30.04 "Hg4 mi
1:20 am19 °FLight snow. Low clouds.7 mph93%30.07 "Hg2 mi
12:50 am19 °FLight snow. Low clouds.6 mph93%30.07 "Hg4 mi
12:20 am18 °FSnow flurries. Low clouds.6 mph93%30.09 "HgN/A
11:50 pm
Tue, Jan 23
16 °FSnow flurries. Mostly cloudy.5 mph93%30.09 "HgN/A
11:20 pm16 °FLight snow. Mostly cloudy.6 mph93%30.09 "HgN/A
10:50 pm14 °FLight snow. Mostly cloudy.2 mph92%30.12 "HgN/A
10:20 pm14 °FLight snow. Mostly cloudy.3 mph85%30.12 "HgN/A
9:50 pm12 °FLight snow. Overcast.5 mph92%30.12 "Hg5 mi
9:20 pm10 °FLight snow. Overcast.3 mph85%30.12 "Hg5 mi
8:50 pm9 °FSnow flurries. Overcast.5 mph85%30.12 "HgN/A
7:50 pm5 °FLight snow. Mostly cloudy.5 mph85%30.12 "HgN/A
7:20 pm5 °FLight snow. Overcast.6 mph85%30.15 "Hg5 mi
6:50 pm3 °FLight snow. Mostly cloudy.7 mph85%30.15 "HgN/A
6:20 pm3 °FLight snow. Passing clouds.2 mph85%30.15 "HgN/A
5:50 pm1 °FLight snow. Passing clouds.2 mph85%30.12 "Hg5 mi
5:20 pm3 °FLight snow. Passing clouds.3 mph85%30.12 "Hg4 mi
4:50 pm3 °FSnow flurries. Partly cloudy.3 mph85%30.12 "Hg4 mi
4:20 pm3 °FSnow flurries. Passing clouds.2 mph85%30.12 "HgN/A
3:50 pm3 °FPassing clouds.3 mph85%30.12 "HgN/A
3:20 pm3 °FLight snow. Sunny.5 mph85%30.12 "HgN/A
2:50 pm3 °FPassing clouds.5 mph85%30.12 "HgN/A
2:20 pm3 °FSunny.5 mph85%30.09 "Hg10 mi
1:50 pm3 °FSunny.3 mph85%30.09 "Hg10 mi
1:20 pm1 °FSunny.5 mph85%30.09 "Hg10 mi
12:50 pm1 °FSnow flurries. Sunny.3 mph85%30.09 "HgN/A
12:20 pm1 °FSunny.7 mph78%30.07 "Hg10 mi
11:50 am0 °FSunny.7 mph84%30.07 "Hg4 mi
11:20 am0 °FLight snow. Ice fog.7 mph78%30.07 "Hg1 mi
10:50 am-2 °FSnow flurries. Ice fog.7 mph84%30.04 "Hg4 mi
10:20 am-2 °FSnow flurries. Sunny.8 mph84%30.04 "HgN/A
9:50 am-2 °FSunny.7 mph84%30.04 "Hg10 mi
9:20 am-2 °FPassing clouds.8 mph84%30.01 "HgN/A
8:50 am-2 °FSunny.6 mph84%30.01 "Hg10 mi
8:20 am-4 °FClear.6 mph84%30.01 "Hg10 mi
7:50 am-4 °FClear.6 mph84%30.01 "Hg10 mi
7:20 am-4 °FClear.7 mph84%30.01 "Hg10 mi
6:50 am-4 °FSnow flurries. Clear.7 mph77%29.98 "HgN/A
6:20 am-6 °FSnow flurries. Clear.5 mph77%29.98 "HgN/A
5:50 am-6 °FSnow flurries. Clear.6 mph84%29.98 "HgN/A
5:20 am-6 °FLight snow. Clear.7 mph84%29.98 "HgN/A
4:50 am-6 °FClear.6 mph84%29.98 "Hg10 mi
4:20 am-6 °FClear.5 mph84%29.98 "Hg10 mi
Weather by CustomWeather, © 2018

See weather overview